N333XP KLAS-KBUR

Flight info

Callsign N333XP
Flight time 0h 38m
Altitude 24000
Route RADYR2 SLVRR KREME JANNY5
Aircraft C750/L-VGDW/C

Departure

Time 2026-05-06 23:21
Airport Harry Reid International Airport (KLAS)

Arrival

Time 2026-05-06 23:59
Airport Hollywood Burbank/Bob Hope Airport (KBUR)
Time Latitude Longitude Altitude Speed Heading
2026-05-06 23:05 36.08162 -115.17071 2179 ft 0 kts
2026-05-06 23:14 36.08170 -115.16991 2178 ft 14 kts 103°
2026-05-06 23:14 36.08175 -115.16917 2176 ft 11 kts 48°
2026-05-06 23:15 36.08277 -115.16854 2173 ft 17 kts 24°
2026-05-06 23:15 36.08406 -115.16778 2168 ft 22 kts 25°
2026-05-06 23:15 36.08577 -115.16682 2161 ft 25 kts 25°
2026-05-06 23:15 36.08755 -115.16577 2154 ft 26 kts 25°
2026-05-06 23:16 36.08937 -115.16471 2146 ft 27 kts 26°
2026-05-06 23:16 36.09130 -115.16364 2136 ft 28 kts 25°
2026-05-06 23:16 36.09333 -115.16249 2127 ft 29 kts 26°
2026-05-06 23:16 36.09535 -115.16131 2119 ft 30 kts 25°
2026-05-06 23:17 36.09739 -115.16014 2112 ft 30 kts 25°
2026-05-06 23:17 36.09912 -115.15909 2107 ft 19 kts 27°
2026-05-06 23:17 36.09981 -115.15785 2101 ft 4 kts 69°
2026-05-06 23:17 36.09986 -115.15762 2101 ft 0 kts 85°
2026-05-06 23:19 36.09965 -115.15692 2100 ft 19 kts 131°
2026-05-06 23:20 36.09832 -115.15720 2101 ft 31 kts 207°
2026-05-06 23:20 36.09373 -115.15982 2119 ft 107 kts 204°
2026-05-06 23:20 36.08472 -115.16490 2161 ft 163 kts 203°
2026-05-06 23:20 36.07348 -115.17185 2477 ft 190 kts 205°
2026-05-06 23:21 36.06137 -115.17877 3132 ft 197 kts 202°
2026-05-06 23:21 36.04857 -115.18560 3747 ft 205 kts 202°
2026-05-06 23:21 36.03520 -115.19266 4282 ft 220 kts 202°
2026-05-06 23:21 36.02045 -115.20044 4903 ft 236 kts 202°
2026-05-06 23:22 36.00490 -115.20870 5540 ft 251 kts 206°
2026-05-06 23:22 35.98932 -115.22001 6176 ft 262 kts 202°
2026-05-06 23:22 35.97127 -115.22511 6820 ft 264 kts 194°
2026-05-06 23:22 35.95349 -115.23225 7421 ft 269 kts 200°
2026-05-06 23:23 35.93527 -115.24033 8035 ft 273 kts 201°
2026-05-06 23:23 35.91722 -115.24849 8636 ft 276 kts 201°
2026-05-06 23:23 35.89876 -115.25687 9250 ft 279 kts 201°
2026-05-06 23:23 35.88019 -115.26530 9856 ft 281 kts 201°
2026-05-06 23:24 35.86121 -115.27393 10483 ft 293 kts 201°
2026-05-06 23:24 35.84107 -115.28306 11142 ft 306 kts 201°
2026-05-06 23:24 35.82068 -115.29227 11803 ft 318 kts 201°
2026-05-06 23:24 35.79934 -115.30195 12447 ft 329 kts 200°
2026-05-06 23:25 35.77745 -115.31185 13090 ft 340 kts 200°
2026-05-06 23:25 35.75462 -115.32217 13741 ft 350 kts 200°
2026-05-06 23:25 35.73090 -115.33289 14402 ft 359 kts 200°
2026-05-06 23:25 35.70703 -115.34369 15034 ft 368 kts 200°
2026-05-06 23:26 35.68244 -115.35477 15673 ft 376 kts 200°
2026-05-06 23:26 35.65756 -115.36598 16309 ft 383 kts 200°
2026-05-06 23:26 35.63206 -115.37750 16947 ft 390 kts 199°
2026-05-06 23:26 35.60745 -115.39178 17527 ft 396 kts 217°
2026-05-06 23:27 35.58785 -115.41582 18232 ft 397 kts 231°
2026-05-06 23:27 35.56916 -115.44144 18873 ft 402 kts 229°
2026-05-06 23:27 35.55052 -115.46684 19503 ft 406 kts 230°
2026-05-06 23:27 35.53144 -115.49266 20142 ft 409 kts 230°
2026-05-06 23:28 35.51218 -115.51864 20770 ft 412 kts 230°
2026-05-06 23:28 35.49300 -115.54456 21401 ft 415 kts 229°
2026-05-06 23:28 35.47354 -115.57082 22034 ft 417 kts 229°
2026-05-06 23:28 35.45399 -115.59714 22667 ft 418 kts 229°
2026-05-06 23:29 35.43420 -115.62379 23318 ft 419 kts 229°
2026-05-06 23:29 35.41449 -115.65026 23959 ft 420 kts 229°
2026-05-06 23:29 35.39443 -115.67725 24048 ft 436 kts 229°
2026-05-06 23:29 35.37341 -115.70551 24084 ft 452 kts 228°
2026-05-06 23:30 35.35163 -115.73467 24096 ft 468 kts 228°
2026-05-06 23:30 35.32724 -115.76373 24094 ft 484 kts 222°
2026-05-06 23:30 35.30096 -115.79297 24076 ft 499 kts 223°
2026-05-06 23:30 35.27361 -115.82346 24060 ft 506 kts 223°
2026-05-06 23:31 35.24601 -115.85434 24038 ft 504 kts 223°
2026-05-06 23:31 35.21883 -115.88474 24029 ft 503 kts 223°
2026-05-06 23:31 35.19159 -115.91513 24024 ft 502 kts 223°
2026-05-06 23:31 35.16481 -115.94502 24021 ft 501 kts 223°
2026-05-06 23:32 35.13866 -115.97419 24017 ft 500 kts 223°
2026-05-06 23:32 35.11213 -116.00368 24012 ft 499 kts 223°
2026-05-06 23:32 35.08538 -116.03347 24021 ft 498 kts 223°
2026-05-06 23:32 35.05867 -116.06316 24024 ft 498 kts 223°
2026-05-06 23:33 35.03142 -116.09335 24022 ft 497 kts 223°
2026-05-06 23:33 35.00466 -116.12306 24023 ft 497 kts 223°
2026-05-06 23:33 34.97759 -116.15301 24024 ft 496 kts 223°
2026-05-06 23:33 34.95083 -116.18269 24022 ft 496 kts 223°
2026-05-06 23:34 34.92473 -116.21292 23994 ft 495 kts 230°
2026-05-06 23:34 34.90628 -116.24976 24065 ft 488 kts 248°
2026-05-06 23:34 34.89133 -116.28896 23810 ft 487 kts 246°
2026-05-06 23:34 34.87646 -116.32766 23522 ft 480 kts 247°
2026-05-06 23:35 34.86155 -116.36610 23229 ft 475 kts 247°
2026-05-06 23:35 34.84676 -116.40423 23050 ft 483 kts 247°
2026-05-06 23:35 34.83175 -116.44282 23035 ft 489 kts 247°
2026-05-06 23:35 34.81669 -116.48147 23031 ft 490 kts 247°
2026-05-06 23:36 34.80197 -116.51919 23043 ft 488 kts 247°
2026-05-06 23:36 34.78834 -116.55772 23012 ft 484 kts 256°
2026-05-06 23:36 34.78329 -116.59790 23112 ft 474 kts 268°
2026-05-06 23:36 34.77930 -116.63889 23073 ft 475 kts 267°
2026-05-06 23:37 34.77556 -116.67931 22738 ft 475 kts 266°
2026-05-06 23:37 34.77166 -116.71943 22047 ft 465 kts 266°
2026-05-06 23:37 34.76780 -116.75920 21370 ft 456 kts 266°
2026-05-06 23:37 34.76402 -116.79768 20698 ft 448 kts 266°
2026-05-06 23:38 34.76028 -116.83606 20027 ft 441 kts 266°
2026-05-06 23:38 34.75655 -116.87354 19378 ft 435 kts 266°
2026-05-06 23:38 34.75288 -116.91019 19133 ft 435 kts 267°
2026-05-06 23:38 34.74916 -116.94724 19091 ft 437 kts 266°
2026-05-06 23:39 34.74542 -116.98441 19080 ft 438 kts 266°
2026-05-06 23:39 34.74160 -117.02187 19076 ft 439 kts 266°
2026-05-06 23:39 34.73784 -117.05884 19003 ft 439 kts 266°
2026-05-06 23:39 34.73401 -117.09619 18566 ft 434 kts 266°
2026-05-06 23:40 34.73027 -117.13292 18177 ft 431 kts 266°
2026-05-06 23:40 34.72649 -117.16939 17800 ft 427 kts 266°
2026-05-06 23:40 34.72276 -117.20565 17418 ft 424 kts 266°
2026-05-06 23:40 34.71904 -117.24165 17034 ft 422 kts 266°
2026-05-06 23:41 34.71534 -117.27734 16663 ft 419 kts 266°
2026-05-06 23:41 34.71164 -117.31298 16257 ft 416 kts 266°
2026-05-06 23:41 34.70797 -117.34820 15880 ft 414 kts 266°
2026-05-06 23:41 34.70434 -117.38298 15523 ft 411 kts 266°
2026-05-06 23:42 34.70067 -117.41785 15167 ft 410 kts 266°
2026-05-06 23:42 34.69703 -117.45278 14789 ft 408 kts 266°
2026-05-06 23:42 34.69336 -117.48728 14428 ft 409 kts 266°
2026-05-06 23:42 34.68964 -117.52255 14114 ft 412 kts 266°
2026-05-06 23:43 34.68592 -117.55731 14024 ft 408 kts 266°
2026-05-06 23:43 34.68224 -117.59205 14020 ft 409 kts 266°
2026-05-06 23:43 34.67852 -117.62672 14021 ft 409 kts 266°
2026-05-06 23:43 34.67480 -117.66157 14001 ft 409 kts 265°
2026-05-06 23:44 34.67120 -117.69606 14009 ft 408 kts 265°
2026-05-06 23:44 34.66742 -117.73121 14022 ft 408 kts 265°
2026-05-06 23:44 34.66377 -117.76569 14022 ft 407 kts 265°
2026-05-06 23:44 34.66009 -117.80026 14007 ft 407 kts 265°
2026-05-06 23:45 34.65642 -117.83443 14006 ft 405 kts 265°
2026-05-06 23:45 34.65272 -117.86900 13957 ft 407 kts 265°
2026-05-06 23:45 34.64898 -117.90321 13403 ft 392 kts 265°
2026-05-06 23:45 34.64538 -117.93606 12870 ft 377 kts 265°
2026-05-06 23:46 34.64192 -117.96760 12345 ft 364 kts 265°
2026-05-06 23:46 34.63855 -117.99845 11814 ft 352 kts 265°
2026-05-06 23:46 34.63532 -118.02795 11303 ft 342 kts 265°
2026-05-06 23:46 34.63212 -118.05709 10790 ft 333 kts 264°
2026-05-06 23:47 34.62692 -118.08456 10346 ft 320 kts 257°
2026-05-06 23:47 34.62095 -118.11092 9835 ft 309 kts 258°
2026-05-06 23:47 34.61528 -118.13635 9335 ft 299 kts 257°
2026-05-06 23:47 34.60960 -118.16205 8816 ft 291 kts 257°
2026-05-06 23:48 34.60410 -118.18658 8318 ft 284 kts 258°
2026-05-06 23:48 34.59882 -118.21036 8066 ft 267 kts 257°
2026-05-06 23:48 34.59405 -118.23167 8023 ft 245 kts 257°
2026-05-06 23:48 34.58963 -118.25150 8027 ft 241 kts 258°
2026-05-06 23:49 34.58514 -118.27177 8080 ft 254 kts 257°
2026-05-06 23:49 34.58017 -118.29401 8084 ft 268 kts 257°
2026-05-06 23:49 34.57509 -118.31668 8054 ft 273 kts 257°
2026-05-06 23:49 34.56984 -118.34013 8064 ft 278 kts 257°
2026-05-06 23:50 34.56460 -118.36343 8044 ft 275 kts 257°
2026-05-06 23:50 34.55434 -118.40909 8035 ft 268 kts 258°
2026-05-06 23:50 34.54710 -118.43120 8002 ft 270 kts 233°
2026-05-06 23:51 34.53187 -118.44611 8063 ft 267 kts 213°
2026-05-06 23:51 34.51499 -118.45934 7670 ft 279 kts 214°
2026-05-06 23:51 34.49734 -118.47335 7039 ft 280 kts 214°
2026-05-06 23:51 34.47964 -118.48740 6443 ft 273 kts 214°
2026-05-06 23:52 34.46265 -118.50058 6042 ft 257 kts 213°
2026-05-06 23:52 34.44697 -118.51276 6003 ft 244 kts 213°
2026-05-06 23:52 34.43234 -118.52411 5990 ft 235 kts 214°
2026-05-06 23:52 34.41763 -118.53552 5979 ft 229 kts 213°
2026-05-06 23:53 34.40344 -118.54654 5994 ft 231 kts 214°
2026-05-06 23:53 34.38923 -118.55756 6000 ft 233 kts 213°
2026-05-06 23:53 34.37475 -118.56875 5997 ft 236 kts 212°
2026-05-06 23:53 34.35814 -118.57413 6002 ft 236 kts 179°
2026-05-06 23:54 34.34026 -118.57328 5989 ft 239 kts 178°
2026-05-06 23:54 34.32310 -118.57268 6043 ft 218 kts 178°
2026-05-06 23:54 34.30670 -118.57211 5970 ft 209 kts 178°
2026-05-06 23:54 34.29063 -118.57149 5531 ft 216 kts 176°
2026-05-06 23:55 34.27383 -118.57016 4878 ft 218 kts 176°
2026-05-06 23:55 34.25770 -118.56890 4252 ft 218 kts 176°
2026-05-06 23:55 34.24173 -118.56767 3594 ft 214 kts 177°
2026-05-06 23:55 34.22678 -118.56403 3034 ft 205 kts 156°
2026-05-06 23:56 34.21492 -118.55491 2948 ft 183 kts 137°
2026-05-06 23:56 34.20669 -118.54324 2947 ft 171 kts 122°
2026-05-06 23:56 34.20157 -118.52994 2955 ft 166 kts 106°
2026-05-06 23:56 34.19944 -118.51571 2965 ft 165 kts 91°
2026-05-06 23:57 34.19951 -118.50048 2723 ft 174 kts 89°
2026-05-06 23:57 34.19942 -118.48546 2666 ft 162 kts 90°
2026-05-06 23:57 34.19917 -118.47150 2489 ft 161 kts 89°
2026-05-06 23:57 34.19887 -118.45715 2373 ft 162 kts 93°
2026-05-06 23:58 34.19864 -118.44257 2074 ft 163 kts 90°
2026-05-06 23:58 34.19875 -118.42795 1782 ft 165 kts 91°
2026-05-06 23:58 34.19865 -118.41331 1541 ft 159 kts 90°
2026-05-06 23:58 34.19844 -118.39922 1309 ft 154 kts 91°
2026-05-06 23:59 34.19818 -118.38557 1061 ft 152 kts 91°
2026-05-06 23:59 34.19797 -118.37234 840 ft 146 kts 90°
2026-05-06 23:59 34.19781 -118.36028 728 ft 105 kts 92°
2026-05-06 23:59 34.19776 -118.35585 720 ft 8 kts 85°
2026-05-07 00:00 34.19814 -118.35528 719 ft 9 kts 13°
2026-05-07 00:00 34.19847 -118.35529 721 ft 0 kts 344°
2026-05-07 00:01 34.19847 -118.35530 721 ft 0 kts 344°
2026-05-07 00:01 34.19882 -118.35586 723 ft 16 kts 276°
2026-05-07 00:01 34.19882 -118.35738 726 ft 15 kts 271°
2026-05-07 00:01 34.19886 -118.35802 727 ft 8 kts 272°
2026-05-07 00:02 34.19888 -118.35922 729 ft 16 kts 271°
2026-05-07 00:02 34.19903 -118.36012 731 ft 7 kts 328°
2026-05-07 00:02 34.19939 -118.36016 733 ft 5 kts 28°
2026-05-07 00:02 34.19978 -118.35972 734 ft 10 kts 64°
2026-05-07 00:03 34.20010 -118.35883 733 ft 4 kts 71°